Location: Christchurch
(43.5330°S, 172.6330°E)
Time: 13:36:03
(UTC+13:00)

USA 234 - Pass Details

Date: 24 January 2019
Orbit: 1103 x 1105 km, 123.0° (Epoch: 06 October)

Event Time Altitude Azimuth Distance (km) Brightness Sun altitude
Rises 21:46:35 0° 131° (SE) 3,955 6.0 -7.4°
Reaches altitude 10° 21:49:10 10° 136° (SE) 2,994 5.5 -7.8°
Maximum altitude 21:55:26 48° 207° (SSW) 1,431 4.4 -8.7°
Drops below altitude 10° 22:01:41 10° 278° (W) 2,979 6.2 -9.6°
Sets 22:04:15 0° 284° (WNW) 3,933 6.7 -9.9°
